Location: *
(43.9900°N, 3.4811°E)
Time: 17:38:16
(UTC+00:00)

Meteor 1-23 Rocket - Pass Details

Date: 25 August 2019
Orbit: 838 x 888 km, 81.3° (Epoch: 17 October)

Event Time Altitude Azimuth Distance (km) Brightness Sun altitude
Rises 20:25:25 0° 349° (N) 3,467 8.1 -18.7°
Reaches altitude 10° 20:27:53 10° 350° (N) 2,518 7.3 -19.0°
Maximum altitude 20:33:37 86° 81° (E) 865 4.1 -19.8°
Enters shadow 20:36:33 30° 168° (SSE) 1,483 5.1 -20.2°
